{"data":{"norad_id":62727,"intl_designator":"2025-012C","name":"2025-012C","alt_names":[],"object_type":"PAYLOAD","status":"ACTIVE","operator":null,"country":"PRC","launch_date":"2025-01-17","launch_site_code":"JSC","launch_vehicle":null,"mission":null,"orbit_class":"UNKNOWN","rcs_meters":null,"size_class":null,"mass_kg":null,"dimensions":null,"purposes":[],"wikipedia_slug":null,"has_3d_model":false,"image_url":null,"decayed_at":null,"tle_current":{"epoch":"2026-09-24T05:02:08.693376Z","epoch_age_seconds":29147,"freshness":"FRESH","line1":"1 62727U 25012C   26267.20982284  .00008670  00000+0  30780-3 0  9993","line2":"2 62727  97.4190 342.3923 0005718 274.4843  85.5744 15.29270192 93514","mean_motion":15.29270192,"eccentricity":0.0005718,"inclination_deg":97.419,"raan_deg":342.3923,"arg_perigee_deg":274.4843,"mean_anomaly_deg":85.5744,"bstar":0.0003078,"rev_number":9351,"period_min":94.162562478037,"perigee_km":474.07238008778,"apogee_km":481.91305002992,"semimajor_km":6856.1297150588,"source":"CELESTRAK","updated_at":"2026-09-24T09:00:26.510424Z"}}}